Regional Weather Roundup
Issued by NWS State College, PA

Home | Current Version | Previous Version | Text Only | Print | Product List | Glossary Off
Versions: 1 2 3 4 5 6 7 8 9 10 11 12 13 14 15 16 17 18 19 20 21 22 23 24 25 26 27 28 29 30 31 32 33 34 35 36 37 38 39 40 41 42 43 44 45 46 47 48 49 50

000
ASUS41 KCTP 200103
RWRCTP

REGIONAL WEATHER ROUNDUP
NATIONAL WEATHER SERVICE STATE COLLEGE PA
800 PM EST MON FEB 19 2018

Note: "fair" indicates few or no clouds below 12,000 feet with no
significant weather and/or obstructions to visibility.

* = STATION THAT DOES NOT REPORT PRECIPITATION /E.G. RAIN...SNOW...ETC/
    THUNDER OR FOG.

PAZ002>004-007>009-013>016-020>023-029>032-200200-
WESTERN PENNSYLVANIA

CITY           SKY/WX    TMP DP  RH WIND       PRES   REMARKS
ERIE           CLOUDY    60  55  83 S18G25    30.03F
MEADVILLE      MOCLDY    55  55 100 VRB6      30.07F
FRANKLIN*      CLOUDY    52  51  97 S12       30.11S
NEW CASTLE     MOCLDY    58  57  97 VRB5      30.10F
BEAVER COUNTY  CLEAR     57  54  88 S6        30.12R
BUTLER*        FAIR      57  54  89 S3        30.13S
PITTSBURGH INT MOCLDY    63  54  72 S7        30.12S
PITTSBURGH     MOCLDY    63  52  67 S9        30.14R
INDIANA*       CLEAR     55  52  88 S6        30.19S
LATROBE        PTCLDY    64  55  72 S8        30.16S
WASHINGTON CO* FAIR      64  54  69 S7        30.17R
$$

PAZ004>006-010>012-017>019-024>028-033>037-041-042-045-046-049>053-200200-
CENTRAL PENNSYLVANIA

CITY           SKY/WX    TMP DP  RH WIND       PRES   REMARKS
BRADFORD       LGT RAIN  50  50 100 VRB5      30.12F
DUBOIS         CLOUDY    45  43  93 SE7       30.15S FOG
CLEARFIELD     CLOUDY    39  38  96 N6        30.20R FOG
JOHNSTOWN      MOCLDY    53  47  79 S9        30.20R
ALTOONA        FAIR      37  37 100 W3        30.24F FOG
STATE COLLEGE  MOCLDY    39  39 100 CALM      30.25F
WILLIAMSPORT   CLOUDY    39  39 100 SE3       30.29S FOG
SELINSGROVE    FOG       39  39 100 CALM      30.30F VSB 3/4
FT INDIANTOWN  FOG       39  39 100 CALM      30.32F VSB 3/8
CAPITAL CITY   CLOUDY    44  44 100 CALM      30.32F FOG
HARRISBURG     CLOUDY    41  40  96 CALM      30.32S FOG
YORK           CLOUDY    45  45 100 CALM      30.32S
$$

PAZ038>040-043-044-047-048-054-055-060>062-067>071-200200-
EASTERN PENNSYLVANIA

CITY           SKY/WX    TMP DP  RH WIND       PRES   REMARKS
SCRANTON       LGT RAIN  44  41  89 SW8       30.29S
MOUNT POCONO   LGT RAIN  40  40 100 SW10G18   30.28F FOG
ALLENTOWN      FOG       38  36  92 NE3       30.35S VSB 1/2
QUAKERTOWN*    FOG       37  37 100 CALM      30.34F VSB 1/4
READING        FOG       38  38 100 N3        30.33F VSB 1/4
LANCASTER      FOG       42  42 100 NE3       30.33S VSB 1/4
COATESVILLE    FOG       43 N/A N/A CALM      30.34S VSB<1/4
POTTSTOWN      CLOUDY    40  40 100 N5        30.36S FOG
BLUE BELL      CLOUDY    43  43 100 CALM      30.36S VSB 1/2
DOYLESTOWN     FOG       42  42 100 CALM      30.33F VSB 1
WILLOW GROVE   NOT AVBL
NORTH PHILA    CLOUDY    51  46  83 CALM      30.36F
PHILADELPHIA   CLOUDY    48  45  89 CALM      30.35F
$$



USA.gov is the U.S. government's official web portal to all federal, state and local government web resources and services.